Вернуться в каталог

STARLINK-37005

АктивенСвязьSSO
NORAD 68107·PAYLOAD·🇺🇸 United States

Запущен Mar 8, 2026 с Vandenberg Space Force Base

Loading…

Ближайшие Пролёты (ближайшие 24 часа)

TLE

СвежийSource: CelesTrak SupGP

Эпоха: Sep 15, 2026, 04:13 UTC

1 68107C 26044G   26258.17618056  .00042898  00000+0  13320-2 0  2584
2 68107  97.2849 217.1417 0002000  96.0781  58.8478 15.33407394    19

Отслеживайте STARLINK-37005 в реальном времени с AllMySat

Download on the App Store